Wind_Speed
17 12 15 17 25 31 36 38 40 34 32 27 24 27 30 29 25 24 27 26 25 26 29 30 27 23 19 17 18 19 21 22 22 23 23 24 25 24 23 23 23 21 20 21
17 17 16 14 18 22 25 32 35 32 26 24 30 33 33 31 28 27 28 29 29 31 33 28 22 19 19 20 23 25 26 26 25 24 25 25 25 25 23 23 24 24 23 23
15 14 13 7 12 15 17 19 23 24 18 23 28 29 29 30 30 31 32 31 30 30 26 21 20 20 22 25 26 27 28 27 26 25 25 25 25 25 25 26 27 27 26 25
15 17 13 14 14 15 16 18 21 20 17 19 22 22 19 22 27 29 28 27 22 17 17 19 21 23 24 26 26 26 26 27 28 28 26 26 28 28 28 27 27 27 27 28
14 12 14 16 14 13 14 10 3 5 7 6 7 12 13 14 13 13 13 12 11 14 16 18 20 21 23 24 26 27 27 28 29 28 27 28 28 28 27 27 26 26 26 27
14 13 12 12 14 12 8 5 8 7 8 9 9 6 7 7 7 6 6 9 12 15 17 18 19 19 20 22 25 26 27 28 29 30 29 29 29 29 29 29 29 25 24 27
14 13 14 14 14 14 11 9 11 9 8 8 9 7 6 7 6 6 8 10 13 15 15 15 17 18 21 23 25 26 26 25 26 28 29 29 27 29 30 31 30 27 25 26
14 14 15 16 19 19 14 15 14 10 7 6 6 6 4 3 5 7 10 13 14 14 14 16 18 19 21 23 24 24 23 22 21 22 23 25 26 27 28 31 32 30 28 27
19 20 20 22 24 21 20 18 13 10 8 7 5 4 2 3 5 9 12 14 14 14 15 16 16 18 20 20 21 22 20 17 17 18 19 21 23 25 27 28 30 30 30 28
14 20 25 24 23 24 20 17 13 10 7 5 4 2 3 4 6 11 14 13 13 13 14 14 16 18 18 18 19 18 17 16 15 12 12 16 20 22 23 23 24 26 29 27
19 18 20 25 26 25 22 18 14 10 6 5 6 3 1 3 8 11 11 10 11 12 12 14 16 18 17 17 17 16 15 14 11 8 9 15 21 24 20 15 17 20 19 19
27 25 27 31 25 25 23 19 14 12 9 8 6 4 4 5 8 9 9 9 10 10 11 14 16 17 18 18 16 15 13 11 9 8 10 14 19 23 21 10 1 8 13 15
28 27 28 26 27 29 25 21 17 15 12 9 7 6 7 6 7 8 8 8 9 10 12 13 15 16 18 18 18 15 12 11 10 9 10 11 15 19 19 12 3 1 3 9
31 28 27 25 28 32 28 24 20 17 13 9 8 9 9 6 6 7 8 8 9 10 11 13 14 15 17 19 19 15 12 10 10 10 11 11 12 13 13 11 6 1 4 8
34 29 26 26 34 35 31 26 22 17 12 10 9 9 9 7 6 6 7 8 9 9 11 12 12 13 15 17 17 15 12 10 10 9 10 11 12 13 13 11 7 3 2 5
30 28 26 31 39 36 33 28 23 17 13 12 10 7 7 6 6 5 6 7 8 9 10 11 11 11 13 15 16 15 13 11 10 9 9 10 10 11 11 10 9 6 3 1
23 27 29 33 37 40 34 29 23 19 14 13 9 5 6 5 5 5 6 7 9 9 9 10 10 10 11 14 15 15 13 11 10 9 9 8 9 10 10 9 8 6 5 4
19 23 28 33 34 35 34 31 26 21 18 17 12 7 6 5 4 5 6 8 9 8 8 9 10 10 11 13 13 13 12 11 10 9 9 8 9 9 8 7 6 6 5 5
17 17 25 32 32 37 37 32 26 22 22 20 14 9 6 3 3 5 6 8 10 9 7 8 9 10 11 12 13 13 13 13 11 10 9 9 9 9 9 8 7 7 7 7
18 15 23 30 29 35 36 28 23 22 23 22 16 11 7 4 3 4 6 7 9 9 8 7 7 7 9 11 13 14 14 13 13 12 12 12 12 12 13 14 13 13 12 12
14 14 23 29 29 29 31 25 20 22 23 21 16 12 9 8 7 5 4 6 7 7 6 6 7 7 8 11 13 14 15 15 15 15 15 14 14 14 15 16 16 16 15 14
15 15 21 28 32 32 30 26 23 23 23 20 17 14 12 11 10 6 1 4 6 6 6 7 6 7 9 11 13 14 16 17 18 18 19 19 18 18 18 18 18 17 17 16
19 18 20 25 33 36 33 28 24 23 23 20 18 16 15 15 14 10 4 3 5 5 6 6 6 7 8 10 12 14 16 18 18 19 20 20 21 20 20 20 20 19 18 18
24 23 21 23 35 38 34 30 26 24 23 21 21 20 18 18 17 15 10 5 4 4 5 5 5 6 7 9 10 12 14 16 18 18 19 19 19 19 19 20 20 20 20 20
29 27 25 23 33 38 35 33 29 27 26 25 24 23 21 21 20 17 14 9 6 4 3 3 3 4 5 7 8 10 12 14 15 16 17 17 17 18 19 19 19 19 20 21
35 31 31 27 32 39 38 36 33 31 29 27 26 24 23 23 22 20 17 13 9 6 4 2 1 3 4 6 8 9 10 11 12 13 14 14 15 16 17 18 19 20 20 19
37 35 35 33 36 41 40 37 34 32 30 27 26 24 23 23 23 22 19 16 12 9 7 5 4 5 5 6 7 8 8 9 9 10 10 10 12 13 14 16 17 18 19 20
Wind_Direction
269 274 256 234 234 247 253 256 260 262 266 267 266 269 272 276 278 272 267 270 279 284 292 298 298 293 288 289 291 293 291 289 287 283 282 281 279 276 272 269 268 270 267 262
262 264 270 250 230 243 265 265 263 267 274 268 255 263 264 265 265 274 273 272 278 285 290 295 294 287 286 293 298 300 298 295 290 287 282 277 274 271 270 269 270 270 266 262
255 258 297 266 236 281 289 274 269 269 264 252 255 260 259 259 264 275 275 277 285 287 286 290 292 288 288 293 297 299 300 297 292 288 280 272 273 274 272 267 264 264 261 253
261 253 268 281 283 292 298 296 283 274 266 261 258 254 256 264 270 275 277 281 283 282 288 291 290 289 291 295 298 300 298 293 289 288 283 278 275 273 271 266 261 260 256 250
257 247 254 269 278 282 290 296 333 305 272 246 217 221 242 266 268 264 262 264 277 288 289 290 292 294 296 298 298 298 295 292 289 287 285 282 277 271 268 266 261 255 248 245
237 237 241 265 277 279 250 188 130 169 166 144 133 179 217 232 234 244 271 288 289 288 291 294 295 295 295 297 299 301 300 295 292 289 286 281 278 276 273 270 264 255 248 242
231 239 241 244 237 205 187 177 175 176 167 155 146 167 209 234 252 275 289 292 294 296 298 301 303 302 303 306 307 308 304 297 291 289 288 285 281 278 277 276 272 266 260 252
233 240 216 212 201 189 186 190 183 183 185 193 187 178 192 252 290 296 300 304 305 304 305 308 308 310 314 316 317 315 312 308 304 299 295 294 292 287 279 274 271 268 262 252
210 223 218 200 198 198 198 192 192 196 200 209 201 158 100 316 306 306 308 310 311 310 307 309 315 321 323 323 321 318 316 313 308 304 303 304 301 294 285 275 267 261 256 251
210 226 230 222 210 201 200 198 203 204 200 204 223 211 84 324 317 313 313 313 314 314 315 319 324 329 329 326 325 324 325 324 322 320 324 327 324 314 296 277 264 257 255 253
221 219 215 217 210 204 206 202 202 207 198 216 235 256 284 300 322 324 323 320 319 321 325 328 332 337 336 335 337 337 334 334 333 334 340 342 343 340 328 292 254 245 244 235
212 206 201 209 217 212 214 210 207 215 211 220 230 242 267 308 335 334 331 323 320 321 326 333 334 337 342 347 348 344 336 335 331 323 331 342 352 358 3 359 291 198 197 203
213 212 206 215 222 211 213 211 215 224 221 224 236 258 278 309 336 337 331 322 320 323 325 332 335 340 349 354 353 347 338 331 332 330 331 340 351 2 11 15 1 213 175 191
216 215 210 219 211 209 210 211 220 224 227 227 241 267 281 300 334 336 326 318 319 325 329 334 337 348 0 360 354 349 342 342 347 350 351 355 356 359 6 13 21 58 198 206
225 223 215 214 209 208 212 214 220 224 228 230 239 261 281 302 330 344 333 322 321 326 329 336 341 356 9 4 357 354 345 344 353 359 2 8 10 14 17 17 20 38 160 198
225 223 215 207 206 208 211 213 217 216 218 227 233 247 271 303 326 349 340 328 326 327 330 336 340 354 6 3 359 354 351 352 352 348 348 350 354 2 8 16 27 37 46 62
218 219 220 214 209 208 208 209 209 211 216 232 234 234 260 284 320 341 341 336 333 332 334 341 346 353 357 354 353 353 353 355 358 357 355 354 353 357 7 16 29 46 54 57
205 218 222 215 208 208 205 207 214 219 220 226 220 219 238 272 323 327 335 340 343 343 341 353 3 5 353 346 352 359 5 13 16 14 10 3 354 351 358 14 21 25 28 26
210 223 222 214 205 199 199 207 215 217 220 220 212 214 218 242 308 321 336 349 354 353 354 6 12 4 351 353 5 14 20 25 29 33 32 29 29 25 26 36 38 34 32 30
231 231 221 212 206 199 195 196 202 209 217 217 208 207 201 203 253 303 344 3 360 359 5 8 12 1 4 17 25 30 35 40 43 47 50 53 56 56 57 61 61 57 55 56
242 246 226 212 203 193 185 185 193 207 214 214 206 203 197 203 230 271 342 16 8 5 11 22 25 22 29 36 38 43 50 54 57 60 64 68 70 69 66 65 64 62 61 59
233 252 236 212 199 195 193 197 204 213 214 210 206 205 199 206 219 237 324 18 8 12 24 35 36 40 42 51 52 54 60 61 63 65 68 70 71 70 68 67 65 61 57 51
231 244 239 210 202 202 203 207 211 217 220 214 212 210 203 207 215 229 249 343 353 6 20 28 33 38 47 57 60 61 65 65 65 67 68 69 69 68 66 63 60 56 51 46
236 238 239 221 206 204 207 212 213 217 223 220 219 216 210 210 216 227 236 261 313 347 10 22 29 45 61 67 65 64 65 68 69 70 70 69 67 64 61 58 55 52 49 47
237 238 242 231 209 203 208 212 214 217 224 223 220 218 213 213 216 224 235 247 275 302 326 3 35 67 82 84 81 76 72 71 71 72 71 69 66 61 57 55 54 52 50 48
240 231 233 230 209 204 208 212 214 217 222 219 218 217 216 216 217 223 229 236 250 259 263 258 172 131 110 100 94 87 81 77 76 74 69 64 60 57 54 52 50 48 46 45
241 230 225 227 211 205 207 211 214 215 215 212 217 217 217 215 218 224 229 234 239 236 232 222 189 160 136 115 103 95 86 79 74 70 64 56 50 46 44 44 45 43 42 39
Height
5763 5762 5761 5762 5764 5765 5765 5765 5763 5768 5769 5774 5775 5773 5772 5772 5772 5771 5771 5771 5770 5768 5767 5766 5764 5763 5762 5761 5760 5759 5758 5756 5755 5754 5753 5752 5751 5751 5751 5751 5752 5753 5754 5754
5756 5757 5756 5758 5759 5759 5759 5759 5758 5760 5763 5765 5764 5762 5762 5763 5763 5763 5763 5763 5763 5762 5760 5759 5758 5757 5756 5755 5754 5753 5751 5749 5747 5747 5746 5745 5744 5744 5745 5744 5744 5745 5747 5748
5750 5750 5749 5751 5752 5753 5752 5749 5748 5749 5752 5749 5749 5749 5751 5754 5756 5756 5756 5757 5757 5755 5753 5752 5751 5751 5750 5748 5748 5746 5744 5741 5739 5738 5738 5737 5737 5737 5737 5737 5737 5738 5740 5742
5744 5745 5746 5746 5746 5747 5746 5745 5743 5741 5740 5741 5741 5742 5745 5747 5749 5749 5749 5750 5750 5749 5749 5748 5746 5745 5743 5742 5741 5739 5737 5734 5731 5730 5730 5730 5730 5729 5728 5728 5729 5730 5731 5733
5737 5739 5741 5741 5743 5743 5743 5742 5740 5737 5734 5734 5735 5739 5742 5742 5742 5743 5744 5745 5746 5745 5744 5743 5741 5739 5738 5736 5735 5732 5730 5726 5722 5722 5722 5721 5720 5720 5719 5719 5719 5720 5722 5725
5731 5733 5735 5737 5737 5737 5739 5738 5737 5735 5733 5732 5733 5737 5740 5740 5740 5742 5743 5743 5742 5741 5740 5738 5737 5735 5733 5731 5729 5725 5722 5718 5715 5713 5713 5713 5711 5710 5710 5710 5711 5712 5714 5716
5726 5728 5728 5730 5732 5734 5736 5736 5734 5733 5733 5731 5731 5734 5737 5738 5739 5740 5740 5739 5738 5737 5735 5734 5732 5730 5727 5725 5721 5718 5714 5711 5709 5706 5704 5702 5703 5702 5701 5701 5701 5703 5704 5707
5720 5723 5725 5725 5726 5729 5731 5731 5731 5732 5732 5732 5732 5732 5734 5736 5737 5737 5736 5735 5733 5732 5730 5729 5727 5724 5721 5718 5714 5710 5707 5704 5701 5699 5697 5695 5694 5693 5693 5692 5691 5693 5695 5698
5714 5719 5719 5720 5722 5725 5727 5729 5731 5730 5731 5733 5733 5732 5732 5733 5733 5733 5732 5731 5730 5729 5727 5726 5723 5720 5717 5713 5709 5705 5701 5699 5696 5693 5691 5689 5687 5684 5682 5680 5681 5683 5685 5688
5703 5710 5713 5717 5721 5723 5726 5728 5729 5730 5730 5732 5733 5732 5728 5731 5730 5730 5729 5728 5727 5726 5724 5722 5720 5717 5713 5709 5705 5701 5697 5694 5691 5689 5687 5685 5681 5676 5672 5670 5671 5674 5676 5680
5694 5700 5706 5712 5716 5719 5723 5726 5727 5728 5729 5731 5733 5731 5729 5729 5728 5727 5726 5725 5724 5722 5721 5718 5716 5713 5710 5706 5702 5698 5694 5692 5689 5688 5686 5682 5678 5671 5664 5661 5661 5665 5669 5673
5691 5696 5701 5706 5709 5714 5719 5724 5725 5726 5728 5729 5730 5730 5729 5727 5726 5725 5724 5723 5722 5720 5719 5717 5715 5712 5708 5704 5700 5696 5694 5691 5689 5687 5685 5681 5677 5671 5664 5659 5659 5661 5665 5671
5689 5692 5699 5704 5707 5711 5716 5721 5722 5724 5726 5728 5729 5728 5727 5727 5725 5723 5722 5721 5720 5719 5718 5716 5714 5710 5706 5702 5698 5696 5693 5691 5689 5686 5684 5681 5677 5672 5668 5665 5663 5665 5667 5670
5683 5688 5693 5698 5703 5709 5713 5717 5720 5722 5725 5726 5727 5728 5727 5726 5724 5722 5721 5720 5719 5718 5716 5715 5712 5709 5705 5701 5698 5695 5693 5691 5688 5685 5683 5680 5678 5675 5672 5669 5668 5668 5670 5672
5679 5684 5689 5693 5699 5705 5709 5714 5718 5720 5723 5724 5725 5726 5726 5725 5723 5721 5720 5719 5718 5717 5715 5713 5711 5708 5704 5701 5699 5696 5693 5691 5688 5686 5684 5681 5679 5677 5674 5672 5671 5671 5672 5673
5675 5681 5685 5688 5694 5700 5706 5711 5715 5718 5720 5722 5724 5725 5724 5723 5723 5720 5719 5718 5717 5716 5714 5712 5710 5708 5705 5703 5700 5697 5693 5690 5688 5686 5684 5682 5681 5679 5677 5675 5673 5672 5672 5673
5673 5678 5682 5684 5689 5695 5702 5708 5712 5716 5718 5720 5723 5724 5724 5722 5721 5720 5718 5717 5717 5716 5714 5712 5710 5708 5706 5704 5701 5697 5693 5690 5687 5686 5684 5683 5682 5680 5678 5677 5675 5674 5674 5673
5670 5673 5677 5681 5685 5691 5699 5706 5711 5714 5716 5719 5722 5722 5722 5722 5720 5719 5718 5717 5716 5715 5713 5712 5709 5707 5706 5705 5701 5697 5693 5690 5688 5686 5685 5684 5682 5681 5679 5678 5677 5676 5675 5675
5666 5670 5672 5677 5683 5689 5695 5701 5706 5709 5713 5717 5719 5720 5720 5721 5720 5719 5718 5717 5716 5715 5713 5711 5709 5708 5707 5705 5701 5698 5694 5691 5689 5687 5686 5684 5683 5681 5680 5679 5678 5677 5677 5676
5664 5666 5669 5674 5680 5685 5692 5697 5701 5705 5710 5714 5716 5717 5718 5719 5720 5719 5718 5717 5716 5715 5713 5711 5710 5709 5708 5706 5702 5699 5697 5694 5691 5689 5688 5687 5686 5684 5683 5682 5681 5680 5679 5678
5661 5663 5666 5670 5676 5682 5688 5694 5698 5702 5706 5711 5713 5714 5716 5718 5719 5719 5719 5718 5717 5715 5714 5712 5711 5710 5709 5707 5704 5702 5700 5698 5695 5693 5692 5691 5689 5688 5687 5686 5685 5684 5682 5681
5659 5661 5662 5666 5671 5678 5684 5690 5695 5698 5702 5706 5709 5711 5713 5716 5718 5719 5719 5718 5718 5716 5715 5714 5713 5712 5711 5710 5708 5706 5704 5702 5700 5698 5696 5695 5694 5693 5691 5690 5689 5688 5686 5685
5655 5657 5659 5661 5666 5673 5680 5686 5691 5695 5699 5702 5706 5709 5711 5714 5717 5718 5719 5719 5718 5717 5716 5716 5715 5714 5713 5712 5711 5709 5708 5706 5704 5702 5701 5700 5699 5697 5696 5695 5693 5692 5690 5688
5652 5654 5655 5656 5661 5668 5675 5681 5686 5691 5695 5699 5703 5705 5708 5711 5714 5716 5718 5719 5719 5718 5717 5717 5716 5716 5715 5714 5713 5712 5711 5710 5708 5707 5705 5704 5703 5702 5700 5699 5697 5696 5693 5691
5647 5649 5651 5652 5656 5663 5669 5675 5680 5685 5690 5694 5698 5701 5704 5709 5711 5713 5716 5717 5718 5718 5718 5718 5717 5717 5717 5716 5715 5714 5714 5713 5712 5711 5711 5710 5708 5707 5705 5703 5701 5699 5697 5695
5639 5642 5645 5648 5652 5658 5664 5669 5674 5680 5684 5689 5693 5697 5702 5706 5708 5711 5714 5716 5716 5717 5718 5718 5718 5718 5718 5718 5717 5717 5717 5716 5716 5715 5715 5714 5712 5711 5709 5707 5705 5703 5701 5699
5630 5634 5638 5642 5646 5652 5658 5664 5669 5674 5678 5683 5687 5692 5698 5703 5705 5707 5710 5713 5714 5716 5717 5718 5718 5719 5719 5719 5719 5719 5719 5719 5718 5718 5717 5716 5715 5714 5712 5711 5709 5707 5705 5702